User: anonymous   Login
Location: �clusier
(49.9361°N, 2.7869°E)
Time: 04:33:27
(UTC+00:00)
Language:

Cosmos 1455 - Orbit

View from above orbital plane
View from above orbital plane
View from above satellite
View from above satellite

Ground track
Ground track

The orbit data is extracted from the following two-line orbital elements,

1 14032U 83037A   21261.50599397  .00000895  00000-0  41101-4 0  9993
2 14032  82.5184 350.1890 0015082 272.7777  87.1732 15.19016601 96936
Epoch (UTC): 18 September 2021 12:08:37
Eccentricity: 0.0015082
inclination: 82.5184°
perigee height: 498 km
apogee height: 519 km
right ascension of ascending node: 350.1890°
argument of perigee: 272.7777°
revolutions per day: 15.19016601
mean anomaly at epoch: 87.1732°
orbit number at epoch: 9693

The dashed part of the orbit path shows where the satellite is in the earth's shadow,  

DLR